Home   Weather   Ras al-Khaimah   Past weeks

Flag for United Arab Emirates Past Weather in Ras al-Khaimah, Ras al-Khaimah, United Arab Emirates — Yesterday and Last 2 Weeks

Now
79 °F

Clear.


Feels Like: 80 °F
Forecast: 79 / 100 °F
Wind: 2 mph from North

Location: Ras Al Khaimah International Airport

Current Time: May 1, 2017 at 3:07:08 am

Latest Report: May 1, 2017 at 2:00 am


Visibility: 10 mi

Pressure: 29.74 "Hg

Humidity: 48%

Dew Point: 57 °F

Location of Ras al-KhaimahLocation

Past Weather in Ras al-Khaimah — Graph

°F

Ras al-Khaimah Temperature Yesterday

Maximum temperature yesterday: 106 °F (at 11:00 am)
Minimum temperature yesterday: 75 °F (at 3:00 am)
Average temperature yesterday: 90 °F

High & Low Weather Summary for the Past Weeks

 TemperatureHumidityPressure
High106 °F (Apr 29, 1:00 pm)100% (Apr 18, 4:00 am)29.89 "Hg (Apr 18, 4:00 am)
Low64 °F (Apr 26, 6:00 am)6% (Apr 24, 12:00 pm)29.68 "Hg (Apr 16, 3:00 am)
Average85 °F46%29.77 "Hg
* Reported Apr 16 2:00 am — May 1 2:00 am, Ras al-Khaimah, Weather by CustomWeather, © 2017

Note: Actual official high and low records may vary slightly from our data, if they occured in-between our weather recording intervals... More about our weather records

Advertising

Ras al-Khaimah Weather History for the Previous 24 Hours

Scroll right to see more
 ConditionsComfort  
Time TempWeatherWind HumidityBarometerVisibility
2:00 am
Mon, May 1
79 °FClear.2 mph48%29.74 "Hg10 mi
1:00 am81 °FClear.2 mph45%29.77 "Hg10 mi
12:00 am86 °FClear.3 mph33%29.77 "Hg10 mi
11:00 pm
Sun, Apr 30
86 °FClear.3 mph33%29.80 "Hg10 mi
10:00 pm86 °FClear.5 mph31%29.80 "Hg10 mi
9:00 pm88 °FClear.6 mph29%29.80 "Hg10 mi
8:00 pm90 °FClear.5 mph26%29.77 "Hg10 mi
7:00 pm95 °FClear.3 mph20%29.77 "Hg10 mi
6:00 pm95 °FSunny.6 mph22%29.77 "Hg10 mi
5:00 pm99 °FSunny.8 mph18%29.77 "Hg10 mi
4:00 pm99 °FSunny.10 mph19%29.77 "Hg10 mi
3:00 pm100 °FSunny.13 mph20%29.77 "Hg10 mi
2:00 pm100 °FClear.17 mph22%29.80 "Hg5 mi
1:00 pm106 °FSunny.10 mph13%29.80 "Hg10 mi
12:00 pm106 °FSunny.10 mph12%29.83 "Hg10 mi
11:00 am106 °FSunny.10 mph13%29.83 "Hg10 mi
10:00 am99 °FSunny.2 mph24%29.86 "Hg10 mi
9:00 am91 °FSunny.3 mph36%29.86 "Hg10 mi
7:00 am79 °FClear.No wind58%29.83 "Hg5 mi
6:00 am75 °FClear.2 mph61%29.80 "Hg5 mi
5:00 am81 °FClear.No wind51%29.80 "Hg10 mi
4:00 am75 °FClear.No wind65%29.77 "Hg10 mi
3:00 am75 °FClear.2 mph65%29.77 "Hg10 mi
Weather by CustomWeather, © 2017

See weather overviewHow to use our weather pages